NC0S Weather Reports


Display with metric or nautical units.
time (UTC)temp
F
wind
direction
speed
MPH
gust
MPH
rain 1hr
in
rain 24hr
in
rain mn
in
humidity
%
barometer
mb
20260906180131 96 157 0.0 2.0 0.00 0.00 0.00 45 1016.4
20260906175030 96 32 0.0 1.0 0.00 0.00 0.00 46 1016.4
20260906174030 96 14 1.0 3.0 0.00 0.00 0.00 46 1016.6
20260906173031 95 91 1.0 3.0 0.00 0.00 0.00 47 1016.8
20260906172029 95 1 1.0 4.0 0.00 0.00 0.00 48 1016.9
20260906171031 95 106 1.0 3.0 0.00 0.00 0.00 47 1017.2
20260906170030 96 179 0.0 1.0 0.00 0.00 0.00 48 1017.2
20260906165031 97 132 0.0 2.0 0.00 0.00 0.00 47 1017.2
20260906164030 97 169 2.0 3.0 0.00 0.00 0.00 47 1017.4
20260906163030 95 128 0.0 1.0 0.00 0.00 0.00 50 1017.5
20260906162030 95 46 1.0 3.0 0.00 0.00 0.00 49 1017.3
20260906161030 94 359 1.0 4.0 0.00 0.00 0.00 49 1017.2
20260906160030 94 26 0.0 3.0 0.00 0.00 0.00 50 1017.3
20260906155030 93 103 0.0 2.0 0.00 0.00 0.00 52 1017.1
20260906154030 93 101 1.0 3.0 0.00 0.00 0.00 53 1017.2
20260906153050 93 56 0.0 2.0 0.00 0.00 0.00 53 1017.1
20260906152030 92 105 1.0 3.0 0.00 0.00 0.00 54 1017.1
20260906151031 91 143 0.0 2.0 0.00 0.00 0.00 56 1017.0
20260906150030 91 106 0.0 2.0 0.00 0.00 0.00 55 1017.1
20260906145110 90 124 0.0 1.0 0.00 0.00 0.00 57 1017.1
20260906144031 89 55 1.0 3.0 0.00 0.00 0.00 58 1017.1
20260906143030 89 5 1.0 2.0 0.00 0.00 0.00 58 1017.2
20260906142050 88 115 0.0 3.0 0.00 0.00 0.00 60 1017.0
20260906141030 87 84 0.0 1.0 0.00 0.00 0.00 60 1017.0
20260906140030 86 0 1.0 2.0 0.00 0.00 0.00 63 1017.1
20260906135030 86 4 0.0 2.0 0.00 0.00 0.00 63 1016.9
20260906134030 85 76 1.0 2.0 0.00 0.00 0.00 63 1016.8
20260906133031 84 127 0.0 1.0 0.00 0.00 0.00 64 1016.8
20260906132030 82 34 0.0 1.0 0.00 0.00 0.00 68 1016.7
20260906131031 80 0.0 0.0 0.00 0.00 0.00 71 1016.6
20260906130031 79 0.0 0.0 0.00 0.00 0.00 72 1016.4
20260906125030 79 87 0.0 1.0 0.00 0.00 0.00 72 1016.3
20260906124031 78 0.0 0.0 0.00 0.00 0.00 74 1016.1
20260906123030 77 0.0 0.0 0.00 0.00 0.00 75 1016.1
20260906122050 77 0.0 0.0 0.00 0.00 0.00 77 1016.0
20260906121030 76 0.0 0.0 0.00 0.00 0.00 78 1015.9
20260906120030 76 0.0 0.0 0.00 0.00 0.00 79 1015.8
20260906115030 77 0.0 0.0 0.00 0.00 0.00 77 1016.0
20260906114030 77 0.0 0.0 0.00 0.00 0.00 77 1015.9
20260906113030 77 0.0 0.0 0.00 0.00 0.00 77 1015.8
20260906112030 77 0.0 0.0 0.00 0.00 0.00 78 1015.8
20260906111029 77 0.0 0.0 0.00 0.00 0.00 79 1015.7
20260906110050 76 0.0 0.0 0.00 0.00 0.00 80 1015.6
20260906105050 76 0.0 0.0 0.00 0.00 0.00 80 1015.7
20260906104030 76 0.0 0.0 0.00 0.00 0.00 80 1015.7
20260906103030 76 0.0 0.0 0.00 0.00 0.00 80 1015.5
20260906102030 77 0.0 0.0 0.00 0.00 0.00 79 1015.6
20260906101030 76 0.0 0.0 0.00 0.00 0.00 80 1015.4
20260906100030 76 0.0 0.0 0.00 0.00 0.00 80 1015.5
20260906095030 77 0.0 0.0 0.00 0.00 0.00 80 1015.3
20260906094030 77 0.0 0.0 0.00 0.00 0.00 79 1015.4
20260906093030 77 0.0 0.0 0.00 0.00 0.00 77 1015.3
20260906092030 78 0.0 0.0 0.00 0.00 0.00 76 1015.3
20260906091030 78 0.0 0.0 0.00 0.00 0.00 75 1015.2
20260906090030 78 0.0 0.0 0.00 0.00 0.00 74 1015.1
20260906085030 78 0.0 0.0 0.00 0.00 0.00 75 1015.1
20260906084030 78 0.0 0.0 0.00 0.00 0.00 75 1015.0
20260906083110 77 0.0 0.0 0.00 0.00 0.00 76 1015.1
20260906082030 77 0.0 0.0 0.00 0.00 0.00 77 1014.9
20260906081031 77 0.0 0.0 0.00 0.00 0.00 77 1015.0
20260906080030 77 0.0 0.0 0.00 0.00 0.00 76 1015.0
20260906075031 78 0.0 0.0 0.00 0.00 0.00 75 1014.9
20260906074030 78 0.0 0.0 0.00 0.00 0.00 74 1015.0
20260906073030 79 0.0 0.0 0.00 0.00 0.00 73 1015.1
20260906072030 80 0.0 0.0 0.00 0.00 0.00 72 1014.9
20260906071030 81 0.0 0.0 0.00 0.00 0.00 70 1015.1
20260906070031 81 0.0 0.0 0.00 0.00 0.00 68 1015.1
20260906065050 81 0.0 0.0 0.00 0.00 0.00 68 1015.1
20260906064051 82 0.0 0.0 0.00 0.00 0.00 66 1015.2
20260906063030 83 0.0 0.0 0.00 0.00 0.00 63 1015.2
20260906062030 83 0.0 1.0 0.00 0.00 0.00 62 1015.2
20260906061030 83 0.0 0.0 0.00 0.00 0.00 63 1015.3
20260906060030 82 0.0 0.0 0.00 0.00 0.00 64 1015.4
20260906055030 82 0.0 0.0 0.00 0.00 0.00 66 1015.5
20260906054030 81 0.0 0.0 0.00 0.00 0.00 68 1015.5
20260906053030 80 0.0 0.0 0.00 0.00 0.00 72 1015.5
20260906052050 80 0.0 0.0 0.00 0.00 0.00 72 1015.6
20260906051031 80 0.0 0.0 0.00 0.00 0.00 72 1015.5
20260906050030 81 0.0 0.0 0.00 0.00 0.00 73 1015.4
20260906045030 81 0.0 0.0 0.00 0.00 0.00 73 1015.5
20260906044030 81 0.0 0.0 0.00 0.00 0.00 72 1015.6
20260906043030 81 0.0 0.0 0.00 0.00 0.00 72 1015.5
20260906042030 81 0.0 0.0 0.00 0.00 0.00 71 1015.3
20260906041030 82 0.0 0.0 0.00 0.00 0.00 71 1015.3
20260906040030 82 0.0 0.0 0.00 0.00 0.00 70 1015.4
20260906035030 83 0.0 0.0 0.00 0.00 0.00 69 1015.2
20260906034030 83 0.0 0.0 0.00 0.00 0.00 67 1015.2
20260906033030 84 0.0 0.0 0.00 0.00 0.00 66 1015.0
20260906032031 85 0.0 0.0 0.00 0.00 0.00 65 1015.1
20260906031030 86 0.0 0.0 0.00 0.00 0.00 63 1014.9
20260906030031 86 0.0 0.0 0.00 0.00 0.00 61 1014.8
20260906025030 87 0.0 0.0 0.00 0.00 0.00 60 1014.6
20260906024030 87 0.0 0.0 0.00 0.00 0.00 59 1014.6
20260906023030 88 0.0 1.0 0.00 0.00 0.00 58 1014.3
20260906022030 88 0.0 0.0 0.00 0.00 0.00 57 1014.2
20260906021030 88 0.0 0.0 0.00 0.00 0.00 57 1014.2
20260906020030 89 0.0 0.0 0.00 0.00 0.00 56 1014.0
20260906015030 89 0.0 1.0 0.00 0.00 0.00 55 1014.1
20260906014210 90 0.0 1.0 0.00 0.00 0.00 55 1013.8
20260906013031 90 0.0 0.0 0.00 0.00 0.00 53 1013.7
20260906012031 91 0.0 1.0 0.00 0.00 0.00 53 1013.7
20260906011030 90 351 0.0 1.0 0.00 0.00 0.00 53 1013.7
20260906010050 90 125 0.0 1.0 0.00 0.00 0.00 53 1013.5
20260906005031 90 0.0 0.0 0.00 0.00 0.00 53 1013.6
20260906004030 89 0.0 1.0 0.00 0.00 0.00 53 1013.4
20260906003030 90 0.0 0.0 0.00 0.00 0.00 53 1013.4
20260906002030 91 0.0 0.0 0.00 0.00 0.00 51 1013.5
20260906001031 92 0.0 0.0 0.00 0.00 0.00 47 1013.4
20260906000031 93 0.0 0.0 0.00 0.00 0.00 46 1013.4
20260905235050 93 0.0 0.0 0.00 0.00 0.00 44 1013.4
20260905234031 94 0.0 0.0 0.00 0.00 0.00 43 1013.4
20260905233030 95 0.0 0.0 0.00 0.00 0.00 41 1013.4
20260905232110 95 0.0 0.0 0.00 0.00 0.00 40 1013.4
20260905231051 95 0.0 0.0 0.00 0.00 0.00 40 1013.3
20260905230050 95 0.0 0.0 0.00 0.00 0.00 41 1013.4
20260905225030 94 0.0 0.0 0.00 0.00 0.00 42 1013.4
20260905224031 94 0.0 0.0 0.00 0.00 0.00 42 1013.4
20260905223030 95 0.0 0.0 0.00 0.00 0.00 42 1013.5
20260905222030 96 0.0 0.0 0.00 0.00 0.00 40 1013.5
20260905221031 95 0.0 0.0 0.00 0.00 0.00 39 1013.7
20260905220031 96 0.0 0.0 0.00 0.00 0.00 39 1013.6
20260905215030 97 0.0 0.0 0.00 0.00 0.00 39 1013.8
20260905214031 97 0.0 0.0 0.00 0.00 0.00 38 1013.9
20260905213051 96 121 1.0 2.0 0.00 0.00 0.00 38 1014.0
20260905212030 96 0.0 1.0 0.00 0.00 0.00 40 1014.0
20260905211031 98 106 0.0 2.0 0.00 0.00 0.00 38 1014.1
20260905210030 98 115 0.0 2.0 0.00 0.00 0.00 37 1014.2
20260905205031 98 118 0.0 2.0 0.00 0.00 0.00 37 1014.3
20260905204030 98 148 1.0 3.0 0.00 0.00 0.00 37 1014.4
20260905203030 98 154 1.0 2.0 0.00 0.00 0.00 37 1014.6
20260905202030 98 132 1.0 3.0 0.00 0.00 0.00 37 1014.8
20260905201030 98 117 1.0 3.0 0.00 0.00 0.00 37 1014.9
20260905200030 98 0.0 2.0 0.00 0.00 0.00 38 1015.0
20260905195030 98 175 1.0 4.0 0.00 0.00 0.00 38 1015.2
20260905194030 98 155 0.0 1.0 0.00 0.00 0.00 38 1015.2
20260905193031 98 74 0.0 3.0 0.00 0.00 0.00 38 1015.3
20260905192030 98 134 0.0 3.0 0.00 0.00 0.00 40 1015.3
20260905191030 98 104 1.0 2.0 0.00 0.00 0.00 40 1015.5
20260905190031 98 155 0.0 2.0 0.00 0.00 0.00 40 1015.5
20260905185110 98 80 0.0 1.0 0.00 0.00 0.00 40 1015.6
20260905184031 98 134 0.0 1.0 0.00 0.00 0.00 41 1015.8
20260905183051 97 51 0.0 2.0 0.00 0.00 0.00 41 1015.9
20260905182049 98 169 0.0 3.0 0.00 0.00 0.00 41 1016.2
20260905181030 98 164 0.0 2.0 0.00 0.00 0.00 42 1016.3